TimeEDT,TemperatureF,Dew PointF,Humidity,Sea Level PressureIn,VisibilityMPH,Wind Direction,Wind SpeedMPH,Gust SpeedMPH,PrecipitationIn,Events,Conditions,WindDirDegrees,DateUTC
12:15 AM,68.0,55.4,64,29.86,10.0,WSW,8.1,-,N/A,,Clear,240,2012-03-29 04:15:00
12:35 AM,66.2,55.4,68,29.85,10.0,WSW,6.9,-,N/A,,Clear,240,2012-03-29 04:35:00
12:55 AM,66.2,55.4,68,29.85,10.0,WSW,6.9,-,N/A,,Clear,240,2012-03-29 04:55:00
1:15 AM,68.0,55.4,64,29.85,10.0,WSW,8.1,-,N/A,,Clear,250,2012-03-29 05:15:00
1:35 AM,68.0,55.4,64,29.85,10.0,WSW,5.8,-,N/A,,Clear,250,2012-03-29 05:35:00
1:55 AM,68.0,53.6,60,29.85,10.0,WSW,8.1,-,N/A,,Clear,250,2012-03-29 05:55:00
2:15 AM,66.2,53.6,64,29.85,10.0,West,6.9,-,N/A,,Clear,260,2012-03-29 06:15:00
2:35 AM,66.2,53.6,64,29.85,10.0,West,3.5,-,N/A,,Clear,270,2012-03-29 06:35:00
2:55 AM,64.4,53.6,68,29.85,10.0,West,3.5,-,N/A,,Clear,260,2012-03-29 06:55:00
3:15 AM,64.4,53.6,68,29.84,10.0,WSW,4.6,-,N/A,,Clear,240,2012-03-29 07:15:00
3:35 AM,62.6,53.6,72,29.84,10.0,SW,3.5,-,N/A,,Clear,230,2012-03-29 07:35:00
3:55 AM,60.8,53.6,77,29.84,10.0,SW,3.5,-,N/A,,Clear,230,2012-03-29 07:55:00
4:15 AM,59.0,53.6,82,29.84,10.0,SW,3.5,-,N/A,,Clear,220,2012-03-29 08:15:00
4:35 AM,59.0,53.6,82,29.83,10.0,SW,5.8,-,N/A,,Clear,220,2012-03-29 08:35:00
4:55 AM,59.0,53.6,82,29.83,10.0,SW,4.6,-,N/A,,Clear,220,2012-03-29 08:55:00
5:15 AM,57.2,53.6,88,29.84,10.0,Calm,Calm,-,N/A,,Clear,0,2012-03-29 09:15:00
5:35 AM,59.0,53.6,82,29.85,10.0,Calm,Calm,-,N/A,,Clear,0,2012-03-29 09:35:00
5:55 AM,59.0,53.6,82,29.85,10.0,Calm,Calm,-,N/A,,Clear,0,2012-03-29 09:55:00
6:15 AM,57.2,53.6,88,29.86,10.0,Calm,Calm,-,N/A,,Clear,0,2012-03-29 10:15:00
6:35 AM,59.0,53.6,82,29.86,10.0,West,3.5,-,N/A,,Clear,260,2012-03-29 10:35:00
6:55 AM,60.8,53.6,77,29.86,10.0,WSW,3.5,-,N/A,,Clear,250,2012-03-29 10:55:00
7:15 AM,60.8,53.6,77,29.87,10.0,WSW,3.5,-,N/A,,Clear,250,2012-03-29 11:15:00
7:35 AM,59.0,53.6,82,29.87,10.0,Calm,Calm,-,N/A,,Clear,0,2012-03-29 11:35:00
7:55 AM,60.8,53.6,77,29.88,10.0,Calm,Calm,-,N/A,,Clear,0,2012-03-29 11:55:00
8:15 AM,60.8,53.6,77,29.89,10.0,West,3.5,-,N/A,,Clear,260,2012-03-29 12:15:00
8:35 AM,62.6,53.6,72,29.90,10.0,West,4.6,-,N/A,,Clear,280,2012-03-29 12:35:00
8:55 AM,64.4,53.6,68,29.91,10.0,West,4.6,-,N/A,,Clear,270,2012-03-29 12:55:00
9:15 AM,66.2,53.6,64,29.91,10.0,WNW,5.8,-,N/A,,Clear,290,2012-03-29 13:15:00
9:35 AM,68.0,51.8,56,29.91,10.0,West,8.1,-,N/A,,Clear,270,2012-03-29 13:35:00
9:55 AM,69.8,46.4,43,29.91,10.0,WNW,11.5,17.3,N/A,,Clear,290,2012-03-29 13:55:00
10:15 AM,69.8,44.6,40,29.91,10.0,West,6.9,17.3,N/A,,Clear,280,2012-03-29 14:15:00
10:35 AM,71.6,42.8,35,29.91,10.0,WNW,10.4,18.4,N/A,,Clear,290,2012-03-29 14:35:00
11:35 AM,73.4,37.4,27,29.91,10.0,NW,11.5,21.9,N/A,,Clear,310,2012-03-29 15:35:00
11:55 AM,75.2,37.4,25,29.92,10.0,WNW,10.4,19.6,N/A,,Clear,300,2012-03-29 15:55:00
12:15 PM,75.2,35.6,24,29.91,10.0,NW,15.0,26.5,N/A,,Clear,320,2012-03-29 16:15:00
12:35 PM,77.0,35.6,22,29.91,10.0,West,8.1,20.7,N/A,,Clear,280,2012-03-29 16:35:00
12:55 PM,77.0,32.0,19,29.91,10.0,NW,13.8,25.3,N/A,,Clear,310,2012-03-29 16:55:00
1:15 PM,77.0,33.8,21,29.91,10.0,NW,12.7,24.2,N/A,,Clear,320,2012-03-29 17:15:00
1:35 PM,77.0,32.0,19,29.90,10.0,NNW,10.4,21.9,N/A,,Clear,330,2012-03-29 17:35:00
1:55 PM,77.0,32.0,19,29.90,10.0,NW,9.2,20.7,N/A,,Clear,310,2012-03-29 17:55:00
2:15 PM,78.8,32.0,18,29.89,10.0,NW,5.8,17.3,N/A,,Clear,310,2012-03-29 18:15:00
2:35 PM,78.8,32.0,18,29.89,10.0,West,9.2,20.7,N/A,,Clear,280,2012-03-29 18:35:00
2:55 PM,78.8,32.0,18,29.88,10.0,NNW,11.5,21.9,N/A,,Clear,340,2012-03-29 18:55:00
3:15 PM,78.8,32.0,18,29.88,10.0,NNW,10.4,17.3,N/A,,Clear,330,2012-03-29 19:15:00
3:35 PM,78.8,30.2,17,29.87,10.0,North,12.7,20.7,N/A,,Clear,360,2012-03-29 19:35:00
3:55 PM,78.8,30.2,17,29.87,10.0,NNW,8.1,-,N/A,,Clear,340,2012-03-29 19:55:00
4:15 PM,78.8,28.4,16,29.87,10.0,NW,10.4,17.3,N/A,,Clear,320,2012-03-29 20:15:00
4:35 PM,78.8,28.4,16,29.87,10.0,NW,8.1,19.6,N/A,,Clear,320,2012-03-29 20:35:00
4:55 PM,78.8,28.4,16,29.87,10.0,NNW,10.4,17.3,N/A,,Clear,330,2012-03-29 20:55:00
5:15 PM,78.8,26.6,15,29.87,10.0,NNW,8.1,17.3,N/A,,Clear,330,2012-03-29 21:15:00
5:35 PM,78.8,28.4,16,29.87,10.0,NNW,5.8,17.3,N/A,,Clear,330,2012-03-29 21:35:00
5:55 PM,78.8,28.4,16,29.87,10.0,NW,3.5,-,N/A,,Clear,320,2012-03-29 21:55:00
6:15 PM,78.8,28.4,16,29.87,10.0,North,10.4,-,N/A,,Clear,350,2012-03-29 22:15:00
6:35 PM,77.0,28.4,17,29.88,10.0,NNW,3.5,-,N/A,,Clear,330,2012-03-29 22:35:00
6:55 PM,77.0,30.2,18,29.89,10.0,Calm,Calm,-,N/A,,Clear,0,2012-03-29 22:55:00
7:15 PM,73.4,32.0,22,29.89,10.0,NNW,4.6,-,N/A,,Clear,340,2012-03-29 23:15:00
7:35 PM,71.6,30.2,22,29.90,10.0,NNW,4.6,-,N/A,,Clear,340,2012-03-29 23:35:00
7:55 PM,68.0,32.0,26,29.90,10.0,Calm,Calm,-,N/A,,Clear,0,2012-03-29 23:55:00
8:15 PM,62.6,37.4,39,29.91,10.0,Calm,Calm,-,N/A,,Clear,0,2012-03-30 00:15:00
8:35 PM,60.8,35.6,39,29.92,10.0,Calm,Calm,-,N/A,,Clear,0,2012-03-30 00:35:00
8:55 PM,59.0,37.4,45,29.92,10.0,Calm,Calm,-,N/A,,Clear,0,2012-03-30 00:55:00
9:15 PM,59.0,37.4,45,29.94,10.0,Calm,Calm,-,N/A,,Clear,0,2012-03-30 01:15:00
9:35 PM,55.4,37.4,51,29.94,10.0,Calm,Calm,-,N/A,,Clear,0,2012-03-30 01:35:00
9:55 PM,55.4,39.2,54,29.95,10.0,Calm,Calm,-,N/A,,Clear,0,2012-03-30 01:55:00
10:15 PM,51.8,39.2,62,29.96,10.0,Calm,Calm,-,N/A,,Clear,0,2012-03-30 02:15:00
10:35 PM,51.8,41.0,67,29.96,10.0,Calm,Calm,-,N/A,,Clear,0,2012-03-30 02:35:00
10:55 PM,51.8,41.0,67,29.96,10.0,Calm,Calm,-,N/A,,Clear,0,2012-03-30 02:55:00
11:15 PM,50.0,41.0,71,29.96,10.0,North,3.5,-,N/A,,Clear,350,2012-03-30 03:15:00
11:35 PM,50.0,41.0,71,29.96,10.0,Calm,Calm,-,N/A,,Clear,0,2012-03-30 03:35:00
11:55 PM,51.8,39.2,62,29.96,10.0,Calm,Calm,-,N/A,,Clear,0,2012-03-30 03:55:00